Regional Weather Roundup
Issued by NWS

Home | Current Version | Previous Version | Graphics & Text | Print | Product List | Glossary On
Versions: 1 2 3 4 5 6 7 8 9 10 11 12 13 14 15 16 17 18 19 20 21 22 23 24 25 26 27 28 29 30 31 32 33 34 35 36 37 38 39 40 41 42 43 44 45 46 47 48 49 50
000
ASUS43 KFSD 041302
RWRSD

WEATHER ROUNDUP FOR SOUTH DAKOTA
NATIONAL WEATHER SERVICE SIOUX FALLS SD
700 AM CST WED MAR 04 2015

NOTE: "FAIR" INDICATES FEW OR NO CLOUDS BELOW 12,000 FEET WITH NO
SIGNIFICANT WEATHER AND/OR OBSTRUCTIONS TO VISIBILITY.


SDZ001>005-009-010-012>017-041400-
NORTHWEST AND NORTH CENTRAL SOUTH DAKOTA

CITY           SKY/WX    TMP DP  RH WIND       PRES   REMARKS
BUFFALO          N/A     -1  -6  79 NW13      30.05R WCI -19
FAITH            N/A     -1  -7  75 NW9       30.16R WCI -16
MOBRIDGE       CLEAR      1  -9  62 NW13      30.17R WCI -17
$$

SDZ012>016-024>037-041>051-057-063-072>074-041400-
SOUTHWEST AND SOUTH CENTRAL SOUTH DAKOTA

CITY           SKY/WX    TMP DP  RH WIND       PRES   REMARKS
RAPID CTY ARPT PTCLDY     4  -4  69 N12       30.12R WCI -12
PIERRE         CLEAR      5  -3  69 NW14      30.20R WCI -12
CUSTER         CLEAR      0  -8  69 W8        29.91R WCI -14
ELLSWORTH AFB  CLEAR      7  -3  63 N10       30.11R WCI  -8
PHILIP         MOCLDY     4  -4  69 NW8       30.20R WCI  -9
PINE RIDGE     CLEAR     -3  -9  75 W9        30.14R WCI -19
SPEARFISH      MOCLDY     5  -2  72 W15       30.07R WCI -13
WINNER         FAIR       8  -5  55 NW16      30.20R WCI -10
$$

SDZ004>011-016>023-039-040-041400-
NORTHEAST SOUTH DAKOTA

CITY           SKY/WX    TMP DP  RH WIND       PRES   REMARKS
ABERDEEN       LGT SNOW   3  -1  83 W10       30.18R FOG     WCI -12
WATERTOWN      CLOUDY    -4  -9  79 NW7       30.11R WCI -18
$$

SDZ017-020-022-023-036>040-048>070-041400-
SOUTHEAST SOUTH DAKOTA

CITY           SKY/WX    TMP DP  RH WIND       PRES   REMARKS
SIOUX FALLS    PTCLDY     0  -5  79 SW3       30.16S
HURON          CLEAR     -1  -7  75 W10       30.18R WCI -17
MITCHELL       CLEAR      4  -3  73 W13       30.20R WCI -13
YANKTON        CLEAR      7   3  85 SW6       30.22S WCI  -3
$$

ABBREVIATIONS USED IN REMARKS
   TC - TEMPERATURE IN CELSIUS
  WCI - WIND CHILL INDEX
   HX - HEAT INDEX
  VSB - VISIBILITY



USA.gov is the U.S. government's official web portal to all federal, state and local government web resources and services.